Regional Weather Roundup
Issued by NWS

Home | Current Version | Previous Version | Text Only | Print | Product List | Glossary Off
Versions: 1 2 3 4 5 6 7 8 9 10 11 12 13 14 15 16 17 18 19 20 21 22 23 24 25 26 27 28 29 30 31 32 33 34 35 36 37 38 39 40 41 42 43 44 45 46 47 48 49 50

000
ASUS43 KDTX 010901
RWRMI
MICHIGAN HOURLY REGIONAL WEATHER ROUNDUP
NATIONAL WEATHER SERVICE DETROIT/PONTIAC MI
500 AM EDT WED JUL 01 2015

NOTE: "FAIR" INDICATES FEW OR NO CLOUDS BELOW 12,000 FEET WITH NO
SIGNIFICANT WEATHER AND/OR OBSTRUCTION TO VISIBILITY.

MIZ047>049-052>055-059>063-066>070-074>076-081>083-011000-
SOUTHEAST LOWER MICHIGAN

CITY           SKY/WX    TMP DP  RH WIND       PRES   REMARKS
ADRIAN         CLOUDY    63  60  90 W5        29.84S
ALMA           CLOUDY    56  55  97 CALM      29.86S
ANN ARBOR      MOCLDY    62  60  93 NW6       29.82S
BAD AXE        CLOUDY    58  56  91 CALM      29.82S
CARO           RAIN      60  58  92 W3        29.82S
DETROIT CITY   LGT RAIN  61  59  93 NW5       29.81R FOG
DETROIT        CLOUDY    64  61  90 W6        29.82R
FLINT          CLOUDY    63  60  90 NW7       29.83S FOG
GROSSE ILE     CLOUDY    63  61  94 W3        29.80S FOG
HILLSDALE      CLOUDY    60  60 100 NW5       29.85S FOG
HOWELL         CLOUDY    61  60  96 NW3       29.83S FOG

CITY           SKY/WX    TMP DP  RH WIND       PRES   REMARKS
JACKSON        CLOUDY    61  59  93 NW7       29.84S
LAMBERTVILLE   MOCLDY    62  59  90 CALM      29.83S FOG
LANSING        CLOUDY    60  58  92 NW8       29.84F
LAPEER         CLOUDY    58  56  95 CALM      29.83S FOG
MASON          CLOUDY    58  58  97 NW7       29.84F FOG
MONROE         CLOUDY    63  62  97 W3        29.81S FOG
MT. CLEMENS    CLOUDY    61  59  95 NW3       29.79S FOG
PONTIAC        CLOUDY    62  61  96 N6        29.81S
PORT HOPE        N/A     61  58  90 NW7       29.79S
PORT HURON     CLOUDY    57  55  94 CALM      29.81R FOG
TRI CITIES     CLOUDY    59  55  87 NW10      29.84S
MIDLAND        CLOUDY    56  55  93 NW6       29.84S
TROY           CLOUDY    63  61  95 CALM      29.83R
SAGINAW HB     CLOUDY    59  59 100 NW9       29.83S
$$
MIZ043>046-050>051-056>058-064>065-071>073-077>080-011000-
SOUTHWEST LOWER MICHIGAN

CITY           SKY/WX    TMP DP  RH WIND       PRES   REMARKS
BATTLE CREEK   CLOUDY    60  57  89 NW5       29.87R FOG
BENTON HARBOR  CLOUDY    58  54  86 VRB5      29.91R
BIG RAPIDS     CLOUDY    51  48  89 CALM      29.87S
COLDWATER      CLOUDY    57  57  98 W6        29.86S FOG
FREMONT        CLOUDY    52  50  94 N6        29.88S
HOLLAND        CLOUDY    56  52  86 NW6       29.89S
GRAND RAPIDS   CLOUDY    57  54  89 NW7       29.87R
IONIA          CLOUDY    58  56  94 NW6       29.85S
KALAMAZOO      CLOUDY    57  53  86 W7        29.88R
LUDINGTON      CLOUDY    51  48  89 N8        29.91R
MARSHALL       CLOUDY    60  58  94 W6        29.86R
MOUNT PLEASANT CLOUDY    54  52  94 NW3       29.85F
MUSKEGON       CLOUDY    53  49  86 N6        29.90R
SOUTH HAVEN    CLOUDY    57  53  86 N8        29.90R
$$
MIZ016>042-011000-
NORTHERN LOWER MICHIGAN

CITY           SKY/WX    TMP DP  RH WIND       PRES   REMARKS
ALPENA         CLOUDY    60  58  92 NW6       29.83S
BEAVER ISLAND  CLOUDY    50  49  95 N6        29.87S
BELLAIRE       CLOUDY    51  49  93 CALM      29.89R
CADILLAC       CLOUDY    51  49  92 NW5       29.86F
CHARLEVOIX     CLOUDY    52  51  97 CALM      29.89F FOG
FRANKFORT      CLOUDY    53  46  75 N3        29.90S
GAYLORD        CLOUDY    51  51 100 W6        29.86S FOG
GRAYLING       CLOUDY    51  50  96 NW6       29.87S FOG
HARBOR SPRINGS LGT RAIN  52  51  97 CALM      29.86S
HOUGHTON LAKE  CLOUDY    51  51 100 NW6       29.86S FOG
MANISTEE       CLOUDY    50  45  81 N5        29.91S
OSCODA         CLOUDY    60  59  95 CALM      29.81S
PELLSTON       CLOUDY    53  52  96 NW6       29.86S
ROGERS CITY    DRIZZLE   58  57  97 NW5       29.84S
TRAVERSE CITY  CLOUDY    51  48  89 W7        29.87F
$$
MIZ007>008-015-011000-
EASTERN UPPER MICHIGAN

CITY           SKY/WX    TMP DP  RH WIND       PRES   REMARKS
KINROSS        CLOUDY    52  52 100 N9        29.85F
MACKINAC ISLAN CLOUDY    53  53 100 N6        29.85S
NEWBERRY       CLOUDY    46  46  97 N5        29.89R
S. S. MARIE    CLOUDY    53  51  93 N3        29.86R
MUNISING         N/A     48  46  93 NW14      29.93S
$$
MIZ004>006-011>014-085-011000-
CENTRAL UPPER MICHIGAN

CITY           SKY/WX    TMP DP  RH WIND       PRES   REMARKS
MANISTIQUE     CLOUDY    45  44  94 N12       29.89R
ESCANABA       CLOUDY    48  43  81 N7        29.92S
MENOMINEE      CLOUDY    48  43  81 N6        29.93S
SAWYER-GWINN   CLOUDY    45  41  86 N14       29.94S
$$
MIZ001>003-009>011-084-011000-
WESTERN UPPER MICHIGAN

CITY           SKY/WX    TMP DP  RH WIND       PRES   REMARKS
IRON MOUNTAIN  CLEAR     44  40  85 NW7       29.93F
HOUGHTON       CLEAR     43  39  86 NW9       29.98S
COPPER HARBOR    N/A     46  42  86 NW6       29.98S
IRONWOOD       CLEAR     39  39 100 E3        29.98R
$$

ABBREVIATIONS USED IN REMARKS
   TC - TEMPERATURE IN CELSIUS
  WCI - WIND CHILL INDEX
   HX - HEAT INDEX
  VSB - VISIBILITY




USA.gov is the U.S. government's official web portal to all federal, state and local government web resources and services.